{"data":{"norad_id":53268,"intl_designator":"2022-086AC","name":"STARLINK-4109","alt_names":[],"object_type":"PAYLOAD","status":"ACTIVE","operator":null,"country":"US","launch_date":"2022-07-24","launch_site_code":"AFETR","launch_vehicle":null,"mission":null,"orbit_class":"UNKNOWN","rcs_meters":null,"size_class":null,"mass_kg":null,"dimensions":null,"purposes":["comms"],"wikipedia_slug":null,"has_3d_model":false,"image_url":null,"decayed_at":null,"tle_current":{"epoch":"2026-09-20T00:03:40.453056Z","epoch_age_seconds":118425,"freshness":"FRESH","line1":"1 53268U 22086AC  26263.00255154  .00001526  00000+0  56305-4 0  9999","line2":"2 53268  53.1610  27.8530 0001138  73.4721 286.6406 15.34383413230590","mean_motion":15.34383413,"eccentricity":0.0001138,"inclination_deg":53.161,"raan_deg":27.853,"arg_perigee_deg":73.4721,"mean_anomaly_deg":286.6406,"bstar":5.6305e-5,"rev_number":23059,"period_min":93.848772594885,"perigee_km":461.97404748104,"apogee_km":463.53103394051,"semimajor_km":6840.8895407108,"source":"CELESTRAK","updated_at":"2026-09-20T09:00:40.217707Z"}}}